Regional Weather Roundup
Issued by NWS Columbia, SC

Home | Current Version | Previous Version | Text Only | Print | Product List | Glossary On
Versions: 1 2 3 4 5 6 7 8 9 10 11 12 13 14 15 16 17 18 19 20 21 22 23 24 25 26 27 28
000
ASUS42 KCAE 250010
RWRCAE
REGIONAL WEATHER ROUNDUP
NATIONAL WEATHER SERVICE COLUMBIA SC
800 PM EDT FRI OCT 24 2014

NOTE: "FAIR" INDICATES FEW OR NO CLOUDS BELOW 12,000 FEET WITH NO
SIGNIFICANT WEATHER AND/OR OBSTRUCTIONS TO VISIBILITY.

NOT ALL STATIONS ARE QUALITY CONTROLLED BY THE NATIONAL
WEATHER SERVICE. USE DATA WITH CAUTION...ESPECIALLY
DEWPOINT OBSERVATIONS.

SCZ001>056-GAZ040-063>065-077-250100-
...UPSTATE SOUTH CAROLINA...

CITY           SKY/WX    TMP DP  RH WIND       PRES   REMARKS
ANDERSON       CLEAR     55  49  80 CALM      30.01R
6HR MIN TEMP:  55; 6HR MAX TEMP:  69;

LIBERTY        FAIR      53  50  90 MISG      30.01R
6HR MIN TEMP:  32; 6HR MAX TEMP:  73;

SPARTANBURG    FAIR      55  52  88 CALM      30.00S
CLEMSON        CLEAR     61  48  62 CALM      30.02R
6HR MIN TEMP:  61; 6HR MAX TEMP:  69;

GREENVILLE     PTCLDY    60  48  64 W3        30.01S
6HR MIN TEMP:  60; 6HR MAX TEMP:  69;

GREENWOOD      CLEAR     54  50  86 CALM      30.02R
6HR MIN TEMP:  54; 6HR MAX TEMP:  70;

GREER          PTCLDY    56  50  80 CALM      29.99S
6HR MIN TEMP:  55; 6HR MAX TEMP:  69;

ROCK HILL      FAIR      51  47  86 CALM      30.01R
6HR MIN TEMP:  51; 6HR MAX TEMP:  68;

LAURENS        FAIR      54  48  82 CALM      30.01S


...CENTRAL SOUTH CAROLINA...

CITY           SKY/WX    TMP DP  RH WIND       PRES   REMARKS
COLUMBIA APT   MOCLDY    62  49  62 CALM      29.99R
6HR MIN TEMP:  61; 6HR MAX TEMP:  73;

COLUMBIA OWENS CLOUDY    61  51  70 CALM      30.00R
6HR MIN TEMP:  61; 6HR MAX TEMP:  73;

DARLINGTON     CLOUDY    57  48  72 CALM      29.99S
6HR MIN TEMP:  57; 6HR MAX TEMP:  72;

FLORENCE       MOCLDY    59  51  75 CALM      29.98S
6HR MIN TEMP:  59; 6HR MAX TEMP:  72;

MCENTIRE ANGB  MOCLDY    58  51  76 CALM      29.99S
6HR MIN TEMP:  57; 6HR MAX TEMP:  73;

ORANGEBURG     CLOUDY    62  50  64 CALM      29.99R
6HR MIN TEMP:  62; 6HR MAX TEMP:  74;

SUMTER SHAW    CLOUDY    61  50  66 CALM      29.98R
6HR MIN TEMP:  61; 6HR MAX TEMP:  73;

NEWBERRY       FAIR      54  52  94 CALM      30.03R
AIKEN          FAIR      55  48  76 CALM      30.03S
BARNWELL       FAIR      63  48  59 CALM      29.99S
MANNING        FAIR      61  61 100 CALM      29.99R
CAMDEN         FAIR      59  50  72 CALM      30.00R
LANCASTER      FAIR      55  55 100 CALM      30.00R
WINNSBORO      FAIR      55  52  88 N3        30.00S


...EASTERN AND COASTAL SOUTH CAROLINA...

CITY           SKY/WX    TMP DP  RH WIND       PRES   REMARKS
MYRTLE BEACH   CLEAR     57  52  82 CALM      29.99R
N MYRTLE BCH   MOCLDY    55  53  93 CALM      29.98R
6HR MIN TEMP:  55; 6HR MAX TEMP:  68;

CONWAY         FAIR      55  55 100 CALM      29.99S
MARION         FAIR      57  54  88 CALM      29.99R
FLORENCE       MOCLDY    59  51  75 CALM      29.98S
6HR MIN TEMP:  59; 6HR MAX TEMP:  72;

DARLINGTON     CLOUDY    57  48  72 CALM      29.99S
6HR MIN TEMP:  57; 6HR MAX TEMP:  72;

CHARLESTON APT PTCLDY    62  51  67 CALM      29.99R
6HR MIN TEMP:  62; 6HR MAX TEMP:  76;

MOUNT PLEASANT FAIR      55  54  94 CALM      29.99S
WALTERBORO     MOCLDY    61  54  77 CALM      30.00R
BEAUFORT       PTCLDY    60  51  72 CALM      29.99S
6HR MIN TEMP:  59; 6HR MAX TEMP:  75;



...EASTERN GEORGIA...

CITY           SKY/WX    TMP DP  RH WIND       PRES   REMARKS
AUGUSTA BUSH F PTCLDY    57  45  64 CALM      29.99R
6HR MIN TEMP:  57; 6HR MAX TEMP:  76;

AUGUSTA DANIEL PTCLDY    66  43  43 N5        30.00R
6HR MIN TEMP:  66; 6HR MAX TEMP:  75;

THOMSON        CLEAR     57  56  97 CALM      30.05R
6HR MIN TEMP:  57; 6HR MAX TEMP:  74;

WASHINGTON     FAIR      61  57  88 CALM      30.01R
CLAXTON        FAIR      57  55  94 CALM      30.00R
SYLVANIA       PTCLDY    64  58  82 CALM      30.00R
6HR MIN TEMP:  64; 6HR MAX TEMP:  80;

SAVANNAH       PTCLDY    62  50  64 CALM      29.99S
6HR MIN TEMP:  62; 6HR MAX TEMP:  77;



...SOUTHERN NORTH CAROLINA...

CITY           SKY/WX    TMP DP  RH WIND       PRES   REMARKS
CHARLOTTE      MOCLDY    57  44  62 W6        30.00R
6HR MIN TEMP:  57; 6HR MAX TEMP:  69;

MONROE         CLOUDY    57  47  69 CALM      29.99R
6HR MIN TEMP:  57; 6HR MAX TEMP:  70;

WADESBORO      CLOUDY   N/A N/A N/A CALM      29.98S
ROCKINGHAM     CLOUDY    59  50  74 CALM      29.98S
6HR MIN TEMP:  59; 6HR MAX TEMP:  69;

RUTHERFORDTON  PTCLDY    54  47  77 CALM      30.02R
6HR MIN TEMP:  54; 6HR MAX TEMP:  66;

ASHEVILLE      CLEAR     56  35  45 N8        30.05R
6HR MIN TEMP:  55; 6HR MAX TEMP:  65;


$$



USA.gov is the U.S. government's official web portal to all federal, state and local government web resources and services.